Погода в Термезе

Погода в Термезе : погода сейчас, прогноз погоды и архив. Всё, что Вы хотите узнать о погоде в Термезе!

Поиск расширенной информации на нашем сайте:

Другие новости

Новости СМИ2

Главная страница сайта

Новости сайта

03.07.2017

Напоминаем, что на нашем специализированном сайте Метеоцентр.Азия вы можете получить высокодетализированные автоматические прогнозы погоды по пунктам России, СНГ и мира в авиационном формате (включающие направление и скорость ветра, видимость, явления погоды, количество и форму облачности, нижнюю и верхнюю границу облачности).


Погода в Термезе - сегодня

Время (UTC), дата Ветер
(°,м/с) 
Видим.   Явления Облачность Т
(°С)
Тd
(°С)
f(%) Тe
(°С)
Pmin
(гПа)
dP
(гПа)
Po
(мм)
O2
(г/м3)
Тmin Tmax R s Состояние
почвы
21 19.05.18 020 (С) 10 км    9/9 30 м кучево-дожд., средняя 
[Cb cap|Ac und]
+17.4 +13.3 77 +24  1015.7  -0.5  735  276        мокрый или
старый снег
50-90% 
00 20.05.18 030 (СВ) 10 км    9/9 2000 м кучево-дожд., средняя 
[Cb cap|Ac und]
+16.9 +13.5 80 +25  1015.8  0.1  735  276           
03 20.05.18 020 (С) 10 км    8/0 средняя 
[Ac trans]
+20.4 +13.4 64 +27  1016.7  1.2  736  273           
06 20.05.18 170 (Ю) 10 км    4/0 верхняя 
[Ci fib]
+24.8 +8.6 36 +25  1016.6  0.3  736  270  +16.4         
09 20.05.18 180 (Ю) 10 км    8/8 2000 м верхняя 
[Cu med, cong|Ci fib]
+26.2 +5.6 27 +26  1015  -1.4  735  269           
12 20.05.18 160 (Ю) 10 км  гроза без осадков  8/8 2000 м кучево-дожд., верхняя 
[Cb cap|Ci fib]
+27.6 -0.9 15 +28  1014  -0.8  734  269           
15 20.05.18 040 (СВ) 10 км  {гроза}  5/5 1500 м кучево-дожд. 
[Cb cap]
+21.3 +8.1 43 +21  1015.5  0.9  735  273    +28.4       
18 20.05.18 050 (СВ) 10 км  {гроза}  3/3 2000 м кучево-дожд. 
[Cb cap]
+18.4 +10.6 60 +21  1016.5  0.5  735  276    +28.4       
21 20.05.18 020 (С) 10 км    3/0 
+17 +10.9 67 +20    -1.1  734  277           
00 21.05.18 020 (С) 10 км    3/0 средняя 
[Ac trans]
+15.2 +11.3 78 +18  1015.7  734  278           
03 21.05.18 030 (СВ) 10 км    5/0 верхняя 
[Ci fib]
+19.9 +11 56 +24  1016.1  0.8  735  274           
06 21.05.18 100 (В) 10 км    6/6 2000 м верхняя 
[Cu med, cong|Ci fib]
+27.1 +8.4 31 +27  1014.7  -0.4  735  268  +14.9         
09 21.05.18 070 (В) 10 км    8/8 2000 м верхняя 
[Cu med, cong|Ci fib]
+29 +4.1 20 +29  1013.2  -1.3  734  267           
12 21.05.18 050 (СВ) 10 км    8/8 1500 м верхняя 
[Cu med, cong|Ci fib]
+29.6 +4.5 20 +30  1012.2  -0.8  733  266           
15 21.05.18 тихо ()   10 км    6/6 2000 м кучево-дожд., верхняя 
[Cb cap|Ci fib]
+26.2 +2.3 21 +26  1013.6  0.8  734  269        780  мокрый или
старый снег
50-90% 
18 21.05.18 100 (В) 10 км    3/0 верхняя 
[Ci fib]
+19.2 +8.2 49 +20  1015  0.6  734  275    +30.4       
21 21.05.18 030 (СВ) 10 км    ясно 
+17.6 +8 53 +18  1014.8  -0.3  734  276           
00 22.05.18 050 (СВ) 10 км    4/0 верхняя 
[Ci fib]
+17.2 +11.1 67 +21  1015.9  1.1  735  276        870   
03 22.05.18 тихо ()   10 км    5/0 верхняя 
[Ci fib]
+21.8 +10.3 48 +24  1016.5  736  273           
06 22.05.18 100 (В) 10 км    5/5 2000 м верхняя 
[Cu med, cong|Ci fib]
+28.3 +8.1 28 +28  1015.9  0.2  736  267  +16.1         
09 22.05.18 130 (ЮВ) 10 км    8/8 2000 м верхняя 
[Cu med, cong|Ci fib]
+30.7 +4 18 +31  1014  -1.6  735  265           
12 22.05.18 060 (СВ) 10 км  гроза без осадков{ливн. осадки}  9/9 1500 м кучево-дожд., верхняя 
[Cb cap|Ci fib]
+28.9 +5.6 23 +29  1013.9  -0.3  734  267           
15 22.05.18 040 (СВ) 10 км  в посл. час гроза  9/9 1500 м кучево-дожд., верхняя 
[Cb cap|Ci fib]
+24.1 +8.4 37 +24  1015.3  0.8  735  271    +32.7       
18 22.05.18 160 (Ю) 10 км  зарница{гроза}  8/8 2000 м кучево-дожд., верхняя 
[Cb cap|Ci fib]
+20.3 +9.9 51 +22  1016.5  0.8  736  274    +32.7  0.0     
21 22.05.18 020 (С) 10 км    5/5 2000 м кучево-дожд., верхняя 
[Cb cap|Ci fib]
+19.5 +8.9 50 +20  1016.1  -0.6  735  275           
Время (UTC), дата Ветер
(°,м/с) 
Видим.   Явления Облачность Т
(°С)
Тd
(°С)
f(%) Тe
(°С)
Pmin
(гПа)
dP
(гПа)
Po
(мм)
O2
(г/м3)
Тmin Tmax R s Состояние
почвы

Для получения пояснительной информации подведите курсор к названию столбца.

ПОГОДА в Термезе - архив

Всё, что Вы хотите узнать о погоде в Термезе - удобно и подробно!

Выберите нужную дату (начиная с 1 января 2015* года) и нажмите кнопку "Найти".
Будут отображены архивные сводки погоды по пункту Термез, начиная с указанной даты.


Отображать данные в формате CSV (для использования в таблицах Excel)


Внимание! Наш архив погоды предназначен исключительно для личного некоммерческого использования в познавательных целях. Если Вам необходимы официальные справки о состоянии погоды (для производственных, юридических, коммерческих и т.п. целей), обращайтесь в органы Росгидромета.

*Примечание: данная дата относится к архиву по метеостанциям СССР (Россия, СНГ, Балтия).
Архив по метеостанциям Зарубежной Европы и Азии (кроме Китая) хранится 10 дней, по другим регионам земного шара (Китай, Африка, Америка, Австралия, Океания) - 1 день.

Термез - район местоположения метеостанции


Название, широта, долгота, высота метеостанции:
Термез 37.2°ш. 67.3°д. 310 м над ур. моря [Узбекистан]

Дополнительная информация

В oтличие oт бoльшинства пoгoдных сайтoв мы публикуем пoдрoбную метеoинфoрмацию в детальнoм прoфессиoнальнoм фoрмате.

Характеристики температуры и влажнoсти вoздуха измеряются на высoте 2 м в тени вдали oт зданий и деревьев.
Скoрoсть ветра измеряется на высoте 10 м (на урoвне рoста челoвека скoрoсть ветра ниже в 1.5-2 раза). Если метеoстанция нахoдится в гoрoде или в лесу, тo скoрoсть ветра занижена на 2-4 м/с пo сравнению с oткрытым местoм. Скoрoсть ветра над акватoриями крупных рек и oзёр, а также на вершинах хoлмoв на 2-5 м/с выше, чем в oбычных услoвиях.
Атмoсфернoе давление в разных тoчках местнoсти мoжет значительнo oтличаться oт давления на метеoстанции, в зависимoсти oт услoвий рельефа (при пoдъёме на 10 м давление пoнижается примернo на 1 мм рт.ст.).